Temp
64 63 63 63 63 63 62 62 62 62 62 62 62 61 60 60 60 60 60 60 60 60 60 59 59 59 59 52 56 69 68 71 70 69 64 63 63 61 57 61 63 59 66 69 70 67 67
63 63 63 62 63 62 62 62 62 61 61 61 60 60 59 60 60 59 59 60 60 59 59 60 59 58 55 43 71 70 65 70 66 66 67 66 65 67 62 62 61 63 65 66 68 66 66
63 63 63 62 62 62 61 61 61 61 60 61 60 60 59 59 59 58 60 59 59 58 59 59 59 60 51 53 71 67 61 66 71 67 65 68 71 66 64 58 66 63 59 62 65 65 63
63 63 62 62 62 61 61 61 60 60 61 60 60 60 59 57 57 58 59 58 59 58 58 59 59 58 46 66 70 64 63 66 69 68 71 69 70 66 62 64 61 57 58 50 61 62 64
62 62 62 61 61 61 61 60 60 60 61 61 59 59 59 56 57 58 57 57 58 58 58 59 56 54 47 66 60 67 64 60 65 64 71 69 65 61 61 54 51 54 47 52 56 64 62
62 62 62 61 60 60 60 60 60 60 60 60 59 58 58 57 58 57 56 57 57 57 59 61 59 47 55 53 61 64 64 64 61 61 58 55 53 51 55 54 43 47 47 55 54 58 60
61 61 61 60 60 60 60 59 59 60 60 59 59 58 58 57 57 57 56 57 50 48 53 49 50 48 53 61 64 61 63 58 61 56 47 51 46 44 52 58 59 57 52 53 58 58 56
61 61 60 60 60 59 59 59 59 59 59 59 58 57 57 57 57 56 58 52 50 51 44 53 52 51 55 57 52 55 63 50 51 45 53 44 40 54 58 59 58 55 52 51 56 57 54
60 60 60 60 59 59 59 58 58 59 58 58 58 57 57 56 56 53 55 51 58 57 39 46 48 47 51 56 53 49 55 49 48 48 47 43 46 55 55 53 52 54 50 50 50 53 56
60 60 60 59 59 59 58 58 58 58 57 57 57 58 56 56 54 55 52 56 58 57 35 36 41 46 53 55 48 55 51 47 43 45 48 45 54 48 52 51 55 48 55 53 49 48 45
59 59 59 59 59 58 58 58 58 57 57 57 56 57 56 57 57 52 52 57 57 51 26 36 38 56 53 49 50 47 53 48 42 41 42 39 46 48 49 52 57 50 55 51 48 47 47
59 59 59 58 58 58 58 57 57 57 57 56 56 56 56 58 59 56 59 58 53 33 26 35 45 45 48 50 48 49 48 51 50 43 44 41 49 46 49 54 57 55 51 49 48 46 36
58 58 58 58 58 58 57 57 57 57 57 56 56 56 56 60 55 60 58 53 33 31 40 35 39 44 44 43 44 46 42 42 38 33 33 37 37 43 48 46 52 52 46 35 33 32 35
58 58 58 58 57 57 57 57 57 56 56 56 55 54 57 60 62 58 53 42 32 35 38 45 45 45 39 42 42 45 46 40 45 42 37 33 31 35 43 43 41 46 48 40 31 34 39
57 57 58 57 57 57 57 56 56 56 55 55 54 60 58 61 59 55 44 34 33 36 46 45 48 43 41 45 43 46 47 47 49 50 38 36 33 40 42 44 46 37 37 48 41 42 39
57 57 57 57 57 57 56 56 56 56 55 55 56 58 58 59 59 52 46 36 39 47 51 51 42 46 43 45 45 47 46 50 48 52 54 47 34 41 43 45 43 41 52 38 39 31 33
57 57 57 57 56 56 56 56 56 55 55 55 56 54 57 59 57 55 36 36 47 52 52 48 46 45 47 44 46 46 46 49 53 51 54 51 46 38 46 43 42 39 40 44 45 41 36
56 56 56 56 56 55 55 55 55 55 55 56 53 46 58 58 50 53 45 43 45 50 54 51 51 48 48 48 46 46 46 50 55 55 49 50 45 36 40 48 50 49 48 48 40 35 40
56 56 56 56 55 55 55 55 55 55 54 51 52 53 59 58 45 46 49 49 50 50 50 50 48 50 51 47 43 47 48 51 54 53 51 51 42 31 35 43 47 43 47 48 47 42 34
55 55 55 55 55 55 54 54 54 54 54 53 51 41 57 59 55 52 48 48 47 51 51 52 50 52 50 47 50 45 47 50 52 53 49 53 45 39 36 38 45 38 43 46 42 34 40
55 55 55 55 55 55 54 54 54 54 54 53 52 47 46 46 50 50 50 48 46 46 51 53 49 50 50 45 46 45 49 48 51 49 52 51 37 37 43 44 42 40 42 43 37 41 38
55 55 55 55 55 55 54 54 54 53 53 53 41 39 47 50 49 50 45 48 46 47 48 48 48 51 52 48 49 46 49 50 48 51 50 51 35 38 35 42 41 37 42 44 42 43 44
54 54 55 55 55 54 53 53 53 53 54 49 48 48 43 47 49 49 51 49 48 49 50 52 53 52 50 51 55 55 58 57 55 51 49 48 40 35 34 40 39 34 40 43 44 46 46
54 54 55 54 54 54 53 53 53 53 52 52 47 43 40 46 47 49 47 47 48 49 48 53 54 52 52 58 59 58 56 55 54 53 55 46 42 39 33 35 27 44 51 50 46 48 50
54 55 54 54 53 53 53 53 53 53 52 52 50 43 40 39 48 47 46 46 49 51 50 51 53 54 60 55 49 44 44 45 47 50 51 53 46 37 32 34 42 46 47 45 44 46 53
54 54 54 53 53 53 53 53 52 53 52 53 49 50 43 38 44 45 42 43 45 49 49 51 54 57 55 48 46 38 35 41 38 42 49 50 50 40 36 29 30 45 50 55 53 42 55
54 54 53 53 53 52 52 52 52 52 52 51 49 49 46 39 47 46 43 42 46 47 47 50 50 49 53 48 40 37 37 46 38 36 37 39 41 35 36 33 41 53 53 55 37 41 53
54 52 53 52 52 52 52 52 52 52 51 49 49 50 44 40 44 46 47 45 47 45 43 48 48 49 46 42 41 41 42 45 43 46 43 40 37 36 38 33 30 56 52 45 51 54 53
54 52 52 52 52 52 52 52 52 52 51 50 44 50 48 39 43 48 49 51 49 49 42 47 43 48 50 46 48 48 44 48 45 39 50 39 46 42 44 44 54 57 57 59 58 56 54
MSLP
1021.27 1020.82 1020.47 1019.93 1019.50 1018.95 1018.37 1017.83 1017.28 1016.79 1016.16 1015.53 1014.96 1014.60 1014.34 1014.06 1013.83 1013.72 1013.52 1013.37 1013.21 1013.17 1013.10 1013.19 1013.20 1013.27 1013.19 1012.18 1010.13 1010.16 1010.00 1010.22 1010.80 1011.28 1011.50 1011.51 1010.93 1011.02 1010.83 1010.71 1010.59 1010.37 1009.35 1009.57 1009.56 1010.06 1010.17
1021.46 1020.92 1020.45 1019.94 1019.22 1018.73 1018.10 1017.63 1017.20 1016.52 1015.96 1015.36 1014.75 1014.31 1014.00 1013.74 1013.44 1013.43 1013.26 1013.12 1013.00 1013.02 1013.03 1013.00 1013.14 1013.30 1012.81 1011.42 1009.56 1009.99 1010.51 1010.19 1010.59 1010.84 1010.86 1011.03 1010.55 1010.66 1010.42 1010.32 1010.30 1010.38 1010.15 1010.10 1010.05 1010.42 1010.61
1021.36 1020.70 1020.34 1019.96 1019.38 1018.88 1018.22 1017.61 1017.00 1016.35 1015.69 1014.91 1014.22 1013.55 1013.19 1013.20 1013.08 1013.15 1013.01 1012.99 1013.05 1013.10 1012.99 1012.85 1012.97 1012.89 1012.17 1010.59 1009.58 1010.23 1010.91 1010.44 1009.88 1010.55 1010.28 1010.66 1010.71 1010.60 1010.58 1010.63 1010.64 1010.92 1010.44 1010.50 1010.29 1010.62 1010.73
1021.28 1020.75 1020.26 1019.80 1019.34 1018.85 1018.30 1017.56 1016.90 1016.21 1015.35 1014.64 1014.00 1013.28 1012.65 1012.64 1012.86 1012.89 1012.94 1013.00 1012.92 1012.88 1012.89 1012.82 1012.77 1012.50 1011.33 1010.49 1010.26 1010.61 1011.03 1010.33 1009.96 1010.51 1010.29 1010.97 1011.00 1010.84 1010.97 1011.05 1011.16 1011.06 1010.82 1010.43 1010.29 1010.78 1010.76
1021.40 1020.95 1020.49 1019.98 1019.54 1019.00 1018.39 1017.58 1016.90 1016.16 1015.16 1014.40 1013.81 1013.07 1012.37 1012.37 1012.61 1012.67 1012.90 1012.96 1012.77 1012.57 1012.66 1012.75 1012.76 1012.25 1010.52 1009.80 1010.02 1010.04 1010.69 1010.18 1010.17 1010.61 1010.51 1011.23 1011.58 1011.11 1011.25 1010.99 1011.05 1010.78 1010.08 1009.78 1009.84 1010.18 1010.59
1021.48 1021.09 1020.64 1020.32 1019.72 1019.14 1018.23 1017.55 1016.94 1016.09 1015.23 1014.53 1013.75 1013.05 1012.31 1012.27 1012.45 1012.76 1012.89 1012.86 1012.67 1012.48 1012.47 1012.27 1012.15 1012.12 1010.22 1009.29 1009.24 1009.60 1010.28 1010.18 1009.96 1010.57 1011.36 1012.13 1012.24 1011.29 1010.87 1010.38 1009.40 1009.36 1009.85 1009.12 1009.30 1010.16 1010.23
1021.50 1021.01 1020.70 1020.33 1019.73 1019.25 1018.41 1017.61 1016.99 1016.10 1015.40 1014.74 1014.07 1013.22 1012.38 1012.32 1012.55 1012.81 1012.82 1012.70 1012.69 1012.25 1011.95 1011.13 1011.09 1010.72 1010.01 1009.47 1009.65 1009.70 1010.11 1010.25 1009.97 1011.03 1011.20 1011.73 1011.74 1010.47 1009.53 1009.13 1009.13 1009.14 1009.73 1009.27 1009.37 1010.42 1010.46
1021.39 1021.07 1020.76 1020.31 1019.79 1019.20 1018.59 1017.78 1016.99 1016.23 1015.60 1014.99 1014.49 1013.76 1013.03 1012.72 1012.71 1012.87 1012.83 1012.33 1012.81 1012.96 1011.89 1011.76 1011.63 1011.39 1011.09 1010.59 1009.63 1009.91 1010.28 1010.60 1010.56 1010.98 1011.19 1012.17 1011.31 1010.56 1010.19 1009.72 1009.41 1009.68 1009.46 1009.73 1010.14 1010.65 1010.98
1021.57 1021.17 1020.70 1020.28 1019.77 1019.33 1018.66 1017.97 1017.16 1016.42 1015.79 1015.30 1014.81 1014.27 1013.69 1013.36 1013.24 1013.61 1012.98 1013.25 1013.16 1012.97 1012.65 1012.09 1012.23 1011.65 1010.89 1010.37 1009.73 1010.47 1010.96 1011.70 1011.26 1011.17 1011.30 1011.25 1011.13 1010.85 1010.22 1009.89 1009.74 1009.81 1009.93 1010.15 1010.55 1011.25 1011.10
1021.70 1021.31 1020.86 1020.32 1019.87 1019.49 1018.94 1018.09 1017.54 1016.62 1015.97 1015.51 1015.07 1014.36 1013.84 1013.36 1013.54 1013.37 1013.11 1013.42 1013.25 1013.18 1013.06 1012.96 1012.35 1011.60 1010.86 1010.13 1010.44 1011.01 1011.81 1012.66 1012.38 1011.63 1012.04 1012.28 1011.36 1011.66 1010.60 1010.13 1009.96 1009.83 1010.56 1010.76 1011.35 1011.23 1010.40
1021.86 1021.32 1020.84 1020.44 1019.88 1019.43 1018.99 1018.40 1017.59 1017.03 1016.15 1015.56 1015.26 1014.41 1013.93 1013.11 1012.97 1013.31 1013.87 1013.44 1013.43 1013.41 1012.81 1013.25 1012.50 1011.58 1010.90 1010.57 1010.78 1011.71 1012.40 1012.51 1012.18 1012.32 1013.17 1012.83 1012.10 1011.61 1010.81 1010.36 1010.27 1010.70 1011.37 1011.78 1012.02 1011.52 1011.01
1021.74 1021.45 1021.01 1020.55 1020.02 1019.43 1018.91 1018.44 1017.83 1016.98 1016.24 1015.47 1015.00 1014.49 1013.85 1013.19 1012.89 1013.36 1013.46 1013.27 1013.08 1012.83 1012.10 1012.23 1011.62 1011.08 1010.28 1010.31 1010.78 1011.56 1011.99 1012.39 1012.55 1012.96 1012.95 1013.31 1013.20 1012.97 1012.09 1011.22 1010.99 1011.94 1012.15 1012.53 1012.52 1012.13 1011.33
1021.71 1021.37 1021.00 1020.44 1019.91 1019.49 1018.75 1018.09 1017.56 1016.95 1016.16 1015.32 1014.54 1014.08 1013.81 1013.12 1012.52 1012.87 1012.94 1012.49 1012.18 1012.01 1012.65 1012.31 1011.33 1011.00 1010.65 1010.70 1010.95 1011.33 1011.68 1011.55 1012.24 1013.16 1013.57 1013.76 1014.19 1014.13 1013.71 1012.88 1012.74 1012.29 1012.26 1012.35 1012.53 1012.23 1010.97
1021.60 1021.36 1020.85 1020.42 1019.82 1019.10 1018.59 1017.88 1017.22 1016.57 1015.98 1015.09 1014.24 1013.73 1013.26 1012.80 1012.88 1012.98 1012.67 1011.92 1011.49 1012.27 1011.73 1011.59 1011.00 1010.63 1010.61 1010.93 1011.10 1010.87 1010.60 1011.14 1011.84 1012.06 1012.56 1013.45 1015.08 1015.03 1014.54 1013.95 1013.33 1012.87 1012.03 1011.31 1011.05 1010.59 1010.49
1021.46 1021.28 1020.90 1020.36 1019.64 1019.05 1018.64 1017.98 1017.11 1016.25 1015.64 1014.71 1013.92 1013.11 1012.84 1012.44 1012.91 1013.04 1012.61 1011.83 1012.44 1011.79 1010.99 1010.48 1010.15 1009.94 1010.12 1010.34 1010.53 1010.24 1009.82 1009.91 1010.49 1010.68 1011.23 1012.22 1014.13 1015.06 1014.92 1014.55 1014.24 1014.17 1013.12 1012.34 1011.39 1010.81 1010.33
1021.53 1021.13 1020.75 1020.36 1019.88 1019.51 1018.65 1017.97 1017.13 1016.28 1015.23 1014.59 1013.64 1012.75 1012.19 1012.51 1012.72 1012.59 1011.79 1012.08 1011.98 1011.34 1010.50 1009.89 1009.35 1009.53 1009.04 1009.37 1009.26 1009.25 1009.39 1009.82 1009.95 1010.27 1010.21 1010.98 1012.89 1014.57 1014.61 1014.88 1014.90 1014.41 1012.86 1012.59 1011.98 1010.94 1009.67
1021.50 1021.19 1020.69 1020.27 1019.99 1019.47 1018.81 1017.96 1017.26 1016.27 1015.26 1014.30 1013.53 1012.29 1012.14 1012.50 1012.54 1011.17 1011.66 1012.01 1011.12 1010.87 1010.51 1009.96 1009.37 1009.05 1008.79 1009.13 1009.05 1008.98 1009.29 1009.90 1009.75 1010.00 1009.96 1010.37 1011.23 1013.72 1013.86 1013.66 1013.43 1014.12 1012.98 1012.20 1011.60 1011.08 1009.87
1021.43 1021.35 1020.78 1020.49 1020.14 1019.62 1019.11 1018.43 1017.45 1016.39 1015.28 1014.04 1013.50 1012.15 1011.99 1012.31 1011.54 1010.69 1010.95 1011.42 1011.30 1010.45 1010.10 1009.77 1009.66 1009.56 1009.13 1009.38 1009.28 1009.18 1009.14 1009.33 1009.96 1009.87 1009.81 1010.62 1011.32 1012.51 1012.94 1013.17 1013.05 1012.51 1011.81 1011.72 1011.41 1011.42 1010.88
1021.53 1021.15 1021.04 1020.51 1019.89 1019.62 1019.05 1018.49 1017.78 1016.81 1016.08 1015.50 1013.62 1012.27 1011.79 1011.64 1010.66 1010.48 1010.89 1010.79 1010.71 1010.21 1009.93 1009.58 1009.45 1009.59 1009.68 1009.40 1009.40 1009.53 1009.76 1010.32 1010.23 1010.05 1010.06 1010.60 1011.38 1012.46 1012.94 1013.17 1012.94 1012.53 1012.08 1011.87 1011.66 1011.78 1011.14
1021.70 1021.56 1021.00 1020.46 1020.05 1019.65 1019.12 1018.54 1017.90 1017.04 1016.07 1015.65 1014.20 1012.66 1011.16 1010.98 1010.97 1010.16 1010.21 1010.20 1010.24 1010.46 1010.04 1009.84 1009.61 1009.55 1009.41 1009.31 1009.41 1009.57 1009.86 1010.49 1010.69 1010.54 1010.82 1010.87 1011.33 1011.91 1011.98 1011.96 1011.81 1012.28 1011.93 1012.05 1012.27 1011.96 1010.64
1021.71 1021.48 1021.23 1020.69 1020.00 1019.73 1019.42 1018.74 1017.81 1017.14 1015.97 1015.43 1014.53 1013.77 1013.80 1011.53 1010.90 1010.60 1010.43 1010.29 1010.04 1009.98 1010.02 1009.80 1009.53 1009.27 1009.05 1009.04 1009.18 1009.40 1009.82 1010.44 1010.73 1010.98 1010.97 1011.08 1011.68 1012.37 1012.35 1012.39 1012.38 1012.29 1012.05 1012.02 1011.91 1011.59 1010.59
1021.62 1021.50 1021.07 1020.77 1020.35 1019.61 1019.47 1018.94 1018.19 1017.22 1015.92 1015.09 1015.79 1015.62 1014.46 1012.68 1011.99 1010.99 1010.61 1010.17 1010.06 1010.08 1010.01 1009.54 1009.28 1009.15 1009.17 1008.93 1008.88 1009.02 1009.44 1009.70 1009.88 1010.81 1010.96 1011.43 1012.13 1012.71 1012.74 1012.62 1012.49 1012.16 1011.72 1011.43 1011.46 1011.23 1010.60
1021.59 1021.30 1020.95 1020.74 1020.36 1019.98 1019.61 1019.11 1018.65 1017.79 1016.65 1016.09 1016.77 1016.52 1015.96 1013.35 1012.10 1011.37 1010.35 1010.41 1010.44 1010.44 1010.27 1009.94 1009.33 1009.18 1009.35 1009.46 1009.50 1009.44 1009.27 1009.45 1009.68 1010.09 1010.62 1011.18 1012.11 1012.72 1012.48 1012.64 1012.30 1011.32 1009.97 1010.19 1010.24 1010.17 1010.01
1021.45 1021.28 1021.14 1020.78 1020.55 1020.26 1019.92 1019.58 1019.01 1018.69 1018.17 1017.48 1017.79 1017.74 1016.48 1013.74 1012.92 1011.87 1011.79 1011.53 1010.99 1010.74 1010.32 1010.07 1009.96 1009.49 1010.22 1010.10 1010.02 1009.80 1009.79 1009.91 1010.06 1010.28 1010.48 1010.94 1011.90 1012.42 1012.53 1012.55 1011.30 1009.41 1009.14 1008.90 1009.21 1009.34 1009.49
1021.30 1021.14 1021.04 1020.93 1020.56 1020.31 1019.96 1019.93 1019.55 1019.34 1018.84 1018.15 1018.28 1018.14 1017.43 1015.59 1013.85 1013.08 1012.78 1012.40 1011.78 1011.26 1010.85 1010.46 1010.53 1010.68 1010.47 1010.28 1010.01 1010.11 1010.19 1010.26 1010.32 1010.58 1010.67 1010.86 1011.44 1011.88 1011.99 1011.29 1009.61 1008.31 1008.60 1008.74 1008.57 1008.14 1008.36
1021.13 1021.10 1020.96 1021.07 1020.58 1020.74 1020.14 1020.06 1019.45 1019.47 1019.34 1018.66 1018.75 1018.59 1018.14 1017.20 1014.67 1014.67 1014.06 1013.60 1012.53 1011.44 1011.25 1010.98 1011.23 1011.12 1010.98 1010.78 1010.36 1009.93 1009.75 1009.58 1010.03 1010.51 1010.91 1011.08 1011.10 1011.65 1011.67 1011.05 1009.22 1008.10 1008.10 1008.23 1008.33 1007.78 1007.81
1020.90 1021.03 1020.90 1020.65 1020.54 1020.58 1020.33 1020.20 1020.04 1019.59 1019.42 1019.22 1018.96 1019.03 1018.41 1017.52 1015.84 1015.48 1014.65 1014.29 1013.68 1012.91 1011.90 1011.53 1011.46 1011.46 1011.42 1010.81 1010.65 1010.40 1009.96 1009.76 1009.49 1009.81 1010.32 1010.69 1010.87 1010.97 1010.89 1010.37 1008.73 1007.54 1008.10 1008.27 1008.37 1008.72 1008.55
1020.45 1020.60 1020.55 1020.51 1020.42 1020.53 1020.42 1020.18 1020.00 1019.61 1019.53 1019.42 1019.04 1019.19 1019.02 1018.16 1016.59 1016.10 1015.64 1015.03 1014.30 1013.97 1012.99 1012.47 1012.22 1011.63 1011.57 1011.10 1010.58 1010.19 1009.56 1009.20 1009.13 1008.98 1009.25 1009.66 1009.96 1010.00 1010.07 1009.65 1008.36 1007.53 1008.18 1008.03 1008.04 1008.47 1008.96
1020.11 1020.32 1020.54 1020.55 1020.07 1020.03 1020.08 1020.10 1019.72 1019.51 1019.47 1019.34 1019.19 1019.21 1019.32 1018.95 1017.01 1016.41 1016.05 1015.70 1015.51 1015.16 1015.03 1013.65 1013.04 1011.99 1011.27 1011.12 1010.32 1009.76 1009.19 1008.86 1008.59 1008.30 1008.96 1009.01 1008.59 1008.82 1008.78 1008.01 1007.67 1007.64 1007.36 1007.80 1008.26 1008.56 1009.05
Wind_Speed
19 19 19 21 21 22 23 21 21 21 23 23 22 18 16 14 13 12 11 11 9 8 8 6 5 5 8 12 14 7 6 19 17 19 18 17 21 19 19 18 15 15 9 15 8 6 9
19 19 19 21 21 22 22 23 24 23 23 24 24 23 17 15 14 10 10 9 9 9 8 6 5 5 11 14 8 10 2 9 17 19 21 20 17 19 10 8 19 11 13 10 11 8 7
18 19 20 22 22 22 24 23 23 25 26 25 21 21 16 14 11 8 9 7 7 5 7 8 4 8 12 14 4 7 2 10 19 23 22 19 15 18 6 7 10 13 17 8 14 12 7
18 19 20 21 22 23 24 24 24 24 25 25 23 21 19 10 7 7 7 7 9 8 7 5 4 7 8 13 16 5 7 10 7 20 19 11 13 15 6 4 9 12 12 14 13 12 8
18 20 21 22 23 22 22 24 24 26 25 25 23 22 16 4 5 4 3 5 9 9 8 5 6 7 8 6 14 15 11 9 12 13 13 10 9 14 8 12 12 13 12 18 13 18 10
18 20 20 22 21 22 22 25 26 26 25 24 24 23 16 5 1 2 2 6 3 6 6 6 4 5 11 9 12 14 8 8 17 17 12 8 7 12 12 14 16 18 19 19 17 10 15
17 19 20 21 23 23 23 24 25 25 24 23 24 23 14 5 3 5 4 3 5 4 6 3 3 7 7 4 10 11 8 5 18 17 12 12 9 19 25 23 16 13 17 16 12 8 8
16 18 20 21 22 22 22 23 25 25 24 23 23 19 15 3 5 4 2 3 8 6 2 2 5 6 9 7 10 11 7 2 14 16 17 8 9 18 19 18 16 9 13 14 4 10 6
16 18 19 20 22 23 22 23 25 24 24 23 22 14 10 11 10 4 3 6 5 7 2 5 5 8 7 5 9 9 3 5 9 21 19 15 7 16 15 15 13 13 13 13 6 9 8
15 17 19 20 22 23 23 23 24 23 24 22 21 17 12 8 4 3 4 4 3 4 2 2 2 2 4 5 5 12 6 2 3 17 16 9 7 15 18 19 15 12 3 7 6 10 6
15 17 18 20 21 23 24 24 23 24 22 23 19 19 10 12 1 3 3 3 3 3 2 3 4 1 5 3 12 6 5 5 3 9 3 5 15 17 16 17 15 4 10 7 3 4 4
14 17 18 20 21 22 24 25 24 23 23 22 19 17 15 5 1 3 3 3 4 4 9 5 3 4 7 6 4 6 4 4 5 7 9 4 5 4 3 3 7 13 13 8 3 1 5
13 16 17 19 21 23 24 24 25 25 25 24 21 13 10 3 4 1 4 4 3 7 1 7 4 4 5 4 4 7 6 5 5 5 4 4 5 4 2 11 8 8 14 5 5 4 4
12 15 16 18 20 22 24 25 25 25 27 25 19 10 6 4 0 3 2 3 10 5 8 4 5 9 4 2 5 0 6 7 3 6 3 3 3 3 5 2 7 12 15 3 7 6 7
10 12 15 17 18 21 24 26 27 27 25 26 17 3 3 1 2 3 4 7 4 2 1 5 8 5 3 6 5 3 2 5 5 2 2 4 5 1 3 3 3 3 7 2 3 2 2
10 12 13 16 19 22 23 26 28 29 27 23 5 4 1 3 5 4 1 4 2 1 2 4 2 4 7 5 3 4 2 3 4 2 4 4 7 6 9 7 0 4 3 3 2 4 5
9 11 13 16 18 22 23 24 28 29 29 17 4 4 5 3 4 2 4 2 4 2 3 4 2 2 3 4 2 2 2 4 1 3 1 4 4 5 5 8 10 6 5 3 4 3 4
8 11 13 16 17 21 23 25 27 28 29 7 4 3 3 4 1 1 4 4 1 3 1 2 2 3 3 4 4 2 3 3 3 1 3 3 5 4 2 2 4 5 6 9 4 5 1
7 10 13 15 16 18 22 24 26 26 24 7 6 3 3 3 1 3 4 5 1 1 2 2 2 2 2 4 3 4 3 2 2 1 2 4 4 4 3 4 3 6 8 8 2 4 5
6 11 13 15 17 17 20 22 25 26 23 4 5 3 1 1 3 2 4 4 4 2 1 0 2 2 5 4 1 5 5 3 1 2 5 1 3 2 2 4 3 5 10 11 8 4 5
6 9 12 15 15 16 18 20 22 26 24 3 2 3 3 2 2 1 2 1 3 4 2 3 3 4 3 3 4 4 5 5 3 3 1 3 1 2 2 1 2 4 7 13 13 11 7
5 8 10 13 15 15 16 18 21 24 25 3 4 4 5 4 4 4 2 2 1 2 3 4 4 5 5 2 2 5 8 7 6 8 6 4 2 2 3 2 6 9 11 11 15 16 17
3 6 9 13 14 16 14 16 18 21 16 4 4 2 3 1 2 5 1 2 1 1 2 3 1 3 4 2 2 3 2 2 0 6 9 6 5 3 2 0 5 10 20 19 15 11 15
4 7 11 12 13 13 14 15 16 17 16 4 4 3 3 2 4 3 4 3 3 1 2 3 3 3 3 5 6 5 3 3 4 3 5 6 5 3 1 2 5 2 2 2 19 12 15
5 6 9 11 12 13 14 14 14 14 14 4 4 3 3 5 5 7 4 6 6 4 4 3 1 2 5 2 4 5 4 4 4 4 6 6 7 3 3 5 11 10 6 5 8 7 18
4 6 7 10 10 12 13 14 14 11 10 5 4 3 2 5 4 6 5 3 6 6 4 3 2 2 3 1 2 4 5 4 5 5 4 6 7 4 4 4 4 5 4 3 3 3 7
5 6 5 7 8 10 11 12 14 12 6 5 2 4 3 4 3 5 3 4 4 6 4 2 4 4 2 5 4 3 5 1 5 5 6 8 6 9 8 5 7 1 6 5 4 5 7
7 4 5 6 6 10 13 12 10 9 11 5 3 2 3 3 9 5 5 8 5 4 5 5 4 5 4 6 4 4 8 7 5 5 7 10 6 6 7 5 8 7 6 4 7 6 5
7 8 6 7 5 9 12 13 11 9 7 1 2 1 1 4 6 6 11 12 11 9 4 4 5 4 2 5 6 4 4 3 7 5 8 6 7 4 7 5 4 7 3 5 3 4 2
Wind_Direction
347 348 354 345 346 344 338 337 338 335 331 326 321 312 312 308 301 293 294 297 302 304 306 304 288 230 232 231 251 80 164 185 180 188 193 205 196 189 205 204 210 219 227 223 264 150 221
349 348 348 345 347 341 336 342 338 335 330 325 320 318 310 296 298 286 277 291 305 306 313 301 252 234 235 240 255 152 274 180 197 194 191 209 208 199 223 206 212 204 230 216 207 193 199
346 344 352 348 346 341 343 347 343 339 333 331 334 329 312 280 290 274 285 287 298 267 295 295 245 233 239 234 213 108 266 263 196 195 192 199 208 201 216 197 195 257 208 214 210 196 209
346 345 350 348 349 345 352 346 337 336 337 339 345 338 324 275 278 271 284 287 285 265 279 269 235 246 251 236 255 180 213 224 191 196 197 190 235 198 242 189 184 202 214 211 206 210 219
346 347 349 353 349 351 347 339 343 341 344 348 351 345 334 262 262 264 254 297 292 277 255 204 214 220 248 159 221 216 215 195 176 202 191 174 241 196 195 189 184 206 203 210 205 195 192
345 348 354 354 352 345 350 348 343 342 347 351 353 351 341 241 151 155 218 314 350 167 198 189 239 216 240 219 181 173 191 254 172 167 159 186 204 200 198 199 200 196 217 203 204 186 224
349 348 354 352 353 353 349 346 341 344 349 353 358 358 5 161 138 152 231 189 198 160 210 329 347 223 34 84 164 157 140 133 172 161 178 177 191 197 197 205 216 215 203 240 208 137 205
351 350 356 352 355 352 348 346 343 346 350 356 5 12 26 83 160 150 280 329 34 355 196 275 291 295 286 274 172 122 128 152 179 174 172 166 213 208 202 208 214 246 193 205 160 149 211
350 351 355 353 353 351 349 347 343 350 350 352 359 10 0 65 100 45 31 46 341 336 25 15 7 284 290 232 151 131 96 59 202 178 182 184 188 219 198 207 191 200 200 198 235 180 222
351 350 355 352 353 352 349 349 347 350 348 349 350 354 354 277 253 165 83 14 326 15 186 14 342 281 252 215 87 89 56 24 327 183 178 186 205 192 193 191 196 185 197 160 174 194 217
349 350 355 352 354 352 350 348 349 345 347 344 345 335 340 1 48 95 17 329 318 220 120 87 244 331 181 179 137 100 113 158 83 114 149 178 189 192 185 190 189 132 149 143 175 242 304
349 350 354 356 353 352 349 348 347 346 343 339 335 322 318 240 179 144 196 265 239 237 34 35 60 82 106 114 62 110 37 113 56 60 64 23 37 8 356 77 187 134 126 113 107 270 243
351 349 354 356 354 351 349 348 348 346 342 337 327 309 288 290 343 193 296 255 244 35 296 348 46 96 77 85 95 120 180 136 113 131 158 23 24 25 331 106 134 165 172 151 192 196 236
352 348 354 356 356 350 348 347 347 348 343 336 329 307 213 278 333 248 269 260 50 353 68 219 102 91 70 74 29 71 160 115 135 95 105 122 133 38 309 111 177 189 200 253 209 194 167
344 348 355 350 354 353 349 348 346 348 344 337 315 199 255 194 240 212 249 48 29 296 41 144 159 105 111 116 137 166 336 72 118 210 105 151 89 123 299 106 151 180 212 11 304 69 207
341 346 350 351 351 352 352 349 349 347 345 341 310 264 229 354 172 214 15 86 162 258 2 325 53 288 137 114 140 140 153 47 97 46 312 101 109 147 134 114 213 247 185 181 207 208 215
349 341 344 349 356 353 353 353 350 350 346 341 269 267 92 135 207 209 77 76 120 54 335 335 49 126 83 128 168 79 41 112 34 77 354 112 105 137 159 209 165 164 205 227 289 292 290
350 344 348 350 357 355 352 353 353 355 350 328 295 275 107 177 272 173 120 163 314 358 348 64 91 69 157 160 156 148 137 41 79 139 111 31 93 139 144 90 316 319 244 206 231 190 314
346 351 357 352 354 356 351 354 354 357 2 322 313 292 163 228 250 102 132 143 273 243 31 8 77 18 182 157 149 137 130 26 66 358 129 158 133 126 180 197 193 227 222 236 283 339 205
355 0 358 354 350 352 356 354 354 353 357 317 292 316 158 187 344 185 177 164 178 171 188 345 116 171 164 160 6 156 139 127 99 47 22 335 158 297 270 58 108 198 213 212 193 210 207
359 354 354 353 350 354 354 356 357 353 350 298 360 35 8 310 124 214 230 191 221 202 208 215 174 254 205 166 174 158 137 143 169 139 146 281 184 82 285 61 141 233 216 210 212 222 235
2 350 348 347 347 351 352 357 359 0 339 81 358 349 329 292 297 238 159 180 247 161 255 180 258 184 197 227 258 176 187 188 183 180 198 175 153 130 272 230 251 257 247 236 226 228 247
350 323 331 349 358 353 357 360 3 11 355 37 13 290 307 13 261 268 158 140 141 315 149 280 134 201 204 61 21 350 127 225 201 192 199 194 152 186 237 205 280 261 231 219 217 215 221
279 320 348 351 357 354 0 0 8 15 10 21 40 305 310 305 265 312 340 341 232 250 327 141 279 255 88 133 132 120 116 138 146 167 202 192 175 161 320 250 239 42 65 247 220 225 217
273 321 344 349 356 358 3 357 1 7 11 25 20 17 336 290 326 271 296 304 283 240 238 240 96 46 146 210 152 163 174 183 172 195 205 218 186 193 233 240 293 261 182 180 182 241 219
290 312 343 346 353 356 3 5 7 2 7 357 42 344 320 309 63 355 316 318 295 230 192 184 115 154 166 255 258 241 218 209 177 172 207 214 231 227 162 258 263 52 144 175 196 229 179
267 304 320 325 343 357 352 357 360 358 8 346 20 12 291 287 312 310 302 309 319 301 291 97 163 177 243 214 227 244 256 257 212 202 183 193 211 225 227 255 283 82 146 177 222 100 108
262 258 274 305 325 338 341 346 342 347 6 313 349 24 352 302 287 258 275 273 278 262 282 66 201 194 190 227 223 195 250 199 251 213 184 187 197 205 220 229 262 133 139 232 103 109 121
273 225 248 287 317 324 330 321 332 341 7 356 282 168 229 238 278 303 273 281 282 288 296 283 341 303 319 238 222 219 211 218 232 227 195 219 214 201 223 221 105 185 246 116 93 109 144